This is the latest recevied weather packets stored in our database for station/object OK2ZAW-21. If no packets are shown the sender has not sent any weather packets the latest 10 day(s).
| Time | Temp. | Humidity | Pressure | Rain* | Wind** | Luminosity | Snow |
|---|---|---|---|---|---|---|---|
| 1788713331 | 18.89° C | 50% | 1029.8 hPa | - | - | 420 W/m² | - |
| 1788713020 | 18.89° C | 48% | 1029.9 hPa | - | - | 420 W/m² | - |
| 1788712709 | 19.44° C | 48% | 1029.8 hPa | - | - | 420 W/m² | - |
| 1788712398 | 19.44° C | 48% | 1029.8 hPa | - | - | 420 W/m² | - |
| 1788712087 | 19.44° C | 47% | 1029.8 hPa | - | - | 420 W/m² | - |
| 1788711776 | 19.44° C | 46% | 1029.7 hPa | - | - | 420 W/m² | - |
| 1788711465 | 20° C | 46% | 1029.7 hPa | - | - | 420 W/m² | - |
| 1788711153 | 19.44° C | 46% | 1029.7 hPa | - | - | 420 W/m² | - |
| 1788710842 | 21.11° C | 43% | 1029.7 hPa | - | - | 420 W/m² | - |
| 1788710531 | 20.56° C | 44% | 1029.7 hPa | - | - | 420 W/m² | - |
| 1788710220 | 21.67° C | 43% | 1029.7 hPa | - | - | 420 W/m² | - |
| 1788709908 | 21.67° C | 43% | 1029.7 hPa | - | - | 420 W/m² | - |
| 1788709597 | 20° C | 45% | 1029.6 hPa | - | - | 420 W/m² | - |
| 1788709286 | 21.11° C | 43% | 1029.6 hPa | - | - | 421 W/m² | - |
| 1788708974 | 19.44° C | 45% | 1029.7 hPa | - | - | 421 W/m² | - |
| 1788708663 | 18.89° C | 47% | 1029.8 hPa | - | - | 421 W/m² | - |
| 1788708352 | 20° C | 45% | 1029.8 hPa | - | - | 421 W/m² | - |
| 1788708040 | 21.67° C | 42% | 1029.8 hPa | - | - | 421 W/m² | - |
| 1788707729 | 22.22° C | 42% | 1029.9 hPa | - | - | 421 W/m² | - |
| 1788707417 | 22.22° C | 41% | 1029.5 hPa | - | - | 421 W/m² | - |
| 1788707106 | 21.67° C | 44% | 1029.8 hPa | - | - | 421 W/m² | - |
| 1788706795 | 21.67° C | 43% | 1029.8 hPa | - | - | 421 W/m² | - |
| 1788706483 | 20° C | 46% | 1029.8 hPa | - | - | 421 W/m² | - |
| 1788706172 | 20° C | 46% | 1029.8 hPa | - | - | 421 W/m² | - |
| 1788705860 | 22.22° C | 42% | 1029.8 hPa | - | - | 421 W/m² | - |
* Rain since midnight (hover to see other rain measurements)
** Current wind speed in m/s (hover to see current wind gust speed)